This is the latest recevied weather packets stored in our database for station/object ED1ZAI-13. If no packets are shown the sender has not sent any weather packets the latest 10 day(s).
| Time | Temp. | Humidity | Pressure | Rain* | Wind** | Luminosity | Snow |
|---|---|---|---|---|---|---|---|
| 1777711559 | 15° C | 70% | 1018.3 hPa | 0 mm | - | - | - |
| 1777710959 | 14.44° C | 71% | 1018.2 hPa | 0 mm | - | - | - |
| 1777710359 | 14.44° C | 71% | 1018.3 hPa | 0 mm | - | - | - |
| 1777709759 | 14.44° C | 71% | 1018.2 hPa | 0 mm | - | - | - |
| 1777709158 | 14.44° C | 73% | 1018.2 hPa | 0 mm | - | - | - |
| 1777708560 | 13.89° C | 74% | 1018.4 hPa | 0 mm | - | - | - |
| 1777707960 | 13.89° C | 76% | 1018.5 hPa | 0 mm | - | - | - |
| 1777707359 | 13.33° C | 77% | 1018.7 hPa | 0 mm | - | - | - |
| 1777706759 | 12.78° C | 76% | 1018.7 hPa | 0 mm | - | - | - |
| 1777706159 | 12.78° C | 77% | 1018.8 hPa | 0 mm | - | - | - |
| 1777705558 | 12.78° C | 77% | 1018.8 hPa | 0 mm | - | - | - |
| 1777704959 | 12.78° C | 78% | 1018.7 hPa | 0 mm | - | - | - |
| 1777704359 | 12.78° C | 77% | 1018.8 hPa | 0 mm | - | - | - |
| 1777703759 | 12.22° C | 77% | 1018.9 hPa | 0 mm | - | - | - |
| 1777703158 | 12.78° C | 76% | 1018.7 hPa | 0 mm | - | - | - |
| 1777702560 | 12.78° C | 77% | 1018.7 hPa | 0 mm | - | - | - |
| 1777701958 | 12.78° C | 77% | 1018.8 hPa | 0 mm | - | - | - |
| 1777701357 | 12.78° C | 77% | 1018.8 hPa | 0 mm | - | - | - |
| 1777700759 | 12.78° C | 77% | 1018.7 hPa | 0 mm | - | - | - |
| 1777700158 | 12.78° C | 77% | 1018.7 hPa | 0 mm | - | - | - |
| 1777699558 | 12.78° C | 77% | 1018.8 hPa | 0 mm | - | - | - |
| 1777698898 | 12.78° C | 77% | 1018.7 hPa | 0 mm | - | - | - |
| 1777698297 | 12.78° C | 77% | 1018.7 hPa | 0 mm | - | - | - |
| 1777697699 | 12.78° C | 77% | 1018.7 hPa | 0 mm | - | - | - |
| 1777697099 | 12.78° C | 77% | 1018.8 hPa | 0 mm | - | - | - |
* Rain latest hour (hover to see other rain measurements)
** Current wind speed in m/s (hover to see current wind gust speed)